This is the latest recevied weather packets stored in our database for station/object N8AMF. If no packets are shown the sender has not sent any weather packets the latest 10 day(s).
| Time | Temp. | Humidity | Pressure | Rain* | Wind** | Luminosity | Snow |
|---|---|---|---|---|---|---|---|
| 1778069672 | 7.22° C | 98% | 1008.4 hPa | 0 mm | - | 66 W/m² | - |
| 1778069369 | 7.22° C | 99% | 1008.5 hPa | 0 mm | - | 44 W/m² | - |
| 1778069066 | 7.78° C | 99% | 1008.7 hPa | 0 mm | - | 49 W/m² | - |
| 1778068764 | 7.78° C | 99% | 1008.9 hPa | 0 mm | - | 32 W/m² | - |
| 1778068462 | 7.78° C | 99% | 1008.8 hPa | 0 mm | - | 24 W/m² | - |
| 1778068160 | 7.78° C | 99% | 1009 hPa | 0 mm | - | 27 W/m² | - |
| 1778067857 | 7.78° C | 99% | 1009.1 hPa | 0 mm | - | 20 W/m² | - |
| 1778067556 | 7.78° C | 99% | 1008.9 hPa | 0 mm | - | 27 W/m² | - |
| 1778067253 | 7.78° C | 99% | 1008.7 hPa | 0 mm | - | 16 W/m² | - |
| 1778066949 | 7.78° C | 99% | 1008.5 hPa | 0 mm | - | 19 W/m² | - |
| 1778066647 | 7.78° C | 99% | 1008.2 hPa | 0 mm | - | 23 W/m² | - |
| 1778066344 | 7.78° C | 99% | 1007.9 hPa | 0 mm | - | 19 W/m² | - |
| 1778066042 | 7.78° C | 99% | 1008 hPa | 0 mm | - | 16 W/m² | - |
| 1778065739 | 7.78° C | 99% | 1007.8 hPa | 0 mm | - | 13 W/m² | - |
| 1778065436 | 7.78° C | 99% | 1007.9 hPa | 0 mm | - | 11 W/m² | - |
| 1778065133 | 7.78° C | 99% | 1007.8 hPa | 0 mm | - | 7 W/m² | - |
| 1778064829 | 7.22° C | 99% | 1007.8 hPa | 0 mm | - | 3 W/m² | - |
| 1778064527 | 7.22° C | 99% | 1007.7 hPa | 0 mm | - | 4 W/m² | - |
| 1778064225 | 7.22° C | 99% | 1007.2 hPa | 0 mm | - | 7 W/m² | - |
| 1778063922 | 7.22° C | 99% | 1007.3 hPa | 0 mm | - | 3 W/m² | - |
| 1778063619 | 7.22° C | 99% | 1007.6 hPa | 0 mm | - | 2 W/m² | - |
| 1778063317 | 7.22° C | 99% | 1007.2 hPa | 0 mm | - | 2 W/m² | - |
| 1778063014 | 7.22° C | 99% | 1007.2 hPa | 0 mm | - | 1 W/m² | - |
| 1778062712 | 7.22° C | 99% | 1007.4 hPa | 0 mm | - | 1 W/m² | - |
| 1778062407 | 7.22° C | 99% | 1007.7 hPa | 0 mm | - | 0 W/m² | - |
* Rain latest hour (hover to see other rain measurements)
** Current wind speed in m/s (hover to see current wind gust speed)